Time,TemperatureF,DewpointF,PressureIn,WindDirection,WindDirectionDegrees,WindSpeedMPH,WindSpeedGustMPH,Humidity,HourlyPrecipIn,Conditions,Clouds,dailyrainin,SolarRadiationWatts/m^2,SoftwareType,DateUTC
2013-12-16 00:00:00,30.0,27.2,30.09,WSW,239,2.0,7.0,89,0.00,,,0.07,0,Wunderground v.1.15,2013-12-16 05:00:00,
2013-12-16 00:05:00,30.0,27.2,30.09,West,267,3.0,7.0,89,0.00,,,0.00,0,Wunderground v.1.15,2013-12-16 05:05:00,
2013-12-16 00:09:00,30.1,27.3,30.08,WSW,249,2.0,7.0,89,0.00,,,0.00,0,Wunderground v.1.15,2013-12-16 05:09:00,
2013-12-16 00:15:00,30.1,27.3,30.08,SW,231,2.0,7.0,89,0.00,,,0.00,0,Wunderground v.1.15,2013-12-16 05:15:00,
2013-12-16 00:20:00,30.1,27.3,30.08,West,273,3.0,3.0,89,0.00,,,0.00,0,Wunderground v.1.15,2013-12-16 05:20:00,
2013-12-16 00:25:00,30.2,27.3,30.08,SW,231,3.0,4.0,89,0.00,,,0.00,0,Wunderground v.1.15,2013-12-16 05:25:00,
2013-12-16 00:30:00,30.2,27.3,30.08,WSW,249,2.0,7.0,89,0.00,,,0.00,0,Wunderground v.1.15,2013-12-16 05:30:00,
2013-12-16 00:35:00,30.3,27.4,30.08,WSW,257,2.0,7.0,89,0.00,,,0.00,0,Wunderground v.1.15,2013-12-16 05:35:00,
2013-12-16 00:40:00,30.3,27.4,30.08,SW,216,3.0,7.0,89,0.00,,,0.00,0,Wunderground v.1.15,2013-12-16 05:40:00,
2013-12-16 00:50:00,30.5,27.6,30.08,NW,314,2.0,7.0,89,0.00,,,0.00,0,Wunderground v.1.15,2013-12-16 05:50:00,
2013-12-16 00:55:00,30.5,27.6,30.08,SW,235,2.0,7.0,89,0.00,,,0.00,0,Wunderground v.1.15,2013-12-16 05:55:00,
2013-12-16 01:00:00,30.5,27.9,30.07,SW,222,3.0,3.0,90,0.00,,,0.00,0,Wunderground v.1.15,2013-12-16 06:00:00,
2013-12-16 01:05:00,30.5,27.9,30.07,WSW,253,3.0,7.0,90,0.00,,,0.00,0,Wunderground v.1.15,2013-12-16 06:05:00,
2013-12-16 01:10:00,30.6,28.0,30.07,SW,226,4.0,7.0,90,0.00,,,0.00,0,Wunderground v.1.15,2013-12-16 06:10:00,
2013-12-16 01:15:00,30.6,28.0,30.07,SW,235,4.0,7.0,90,0.00,,,0.00,0,Wunderground v.1.15,2013-12-16 06:15:00,
2013-12-16 01:20:00,30.6,28.0,30.07,WSW,247,4.0,4.0,90,0.00,,,0.00,0,Wunderground v.1.15,2013-12-16 06:20:00,
2013-12-16 01:30:00,30.7,28.1,30.07,WNW,293,4.0,8.0,90,0.00,,,0.00,0,Wunderground v.1.15,2013-12-16 06:30:00,
2013-12-16 01:34:00,30.7,28.1,30.07,West,271,4.0,8.0,90,0.00,,,0.00,0,Wunderground v.1.15,2013-12-16 06:34:00,
2013-12-16 01:40:00,30.8,28.2,30.07,SW,233,5.0,5.0,90,0.00,,,0.00,0,Wunderground v.1.15,2013-12-16 06:40:00,
2013-12-16 01:45:00,30.8,28.2,30.07,SSW,208,4.0,7.0,90,0.00,,,0.00,0,Wunderground v.1.15,2013-12-16 06:45:00,
2013-12-16 01:50:00,30.8,28.2,30.07,SW,235,4.0,4.0,90,0.00,,,0.00,0,Wunderground v.1.15,2013-12-16 06:50:00,
2013-12-16 01:55:00,30.9,28.3,30.07,SSW,208,4.0,7.0,90,0.00,,,0.00,0,Wunderground v.1.15,2013-12-16 06:55:00,
2013-12-16 02:00:00,30.9,28.3,30.07,SW,235,4.0,7.0,90,0.00,,,0.00,0,Wunderground v.1.15,2013-12-16 07:00:00,
2013-12-16 02:10:00,30.9,28.3,30.07,West,262,3.0,3.0,90,0.00,,,0.00,0,Wunderground v.1.15,2013-12-16 07:10:00,
2013-12-16 02:20:00,31.0,28.4,30.07,SW,232,3.0,3.0,90,0.00,,,0.00,0,Wunderground v.1.15,2013-12-16 07:20:00,
2013-12-16 02:25:00,31.0,28.4,30.07,West,259,3.0,7.0,90,0.00,,,0.00,0,Wunderground v.1.15,2013-12-16 07:25:00,
2013-12-16 02:30:00,31.0,28.4,30.07,West,261,2.0,2.0,90,0.00,,,0.00,0,Wunderground v.1.15,2013-12-16 07:30:00,
2013-12-16 02:35:00,31.1,28.5,30.07,SSW,193,1.0,4.0,90,0.00,,,0.00,0,Wunderground v.1.15,2013-12-16 07:35:00,
2013-12-16 02:40:00,31.1,28.5,30.07,West,272,2.0,7.0,90,0.00,,,0.00,0,Wunderground v.1.15,2013-12-16 07:40:00,
2013-12-16 02:45:00,31.1,28.5,30.07,SSW,213,3.0,7.0,90,0.00,,,0.00,0,Wunderground v.1.15,2013-12-16 07:45:00,
2013-12-16 02:50:00,31.1,28.5,30.07,SW,222,3.0,3.0,90,0.00,,,0.00,0,Wunderground v.1.15,2013-12-16 07:50:00,
2013-12-16 02:55:00,31.1,28.5,30.07,SW,228,2.0,5.0,90,0.00,,,0.00,0,Wunderground v.1.15,2013-12-16 07:55:00,
2013-12-16 03:05:00,31.2,28.6,30.07,SSW,205,2.0,3.0,90,0.00,,,0.00,0,Wunderground v.1.15,2013-12-16 08:05:00,
2013-12-16 03:10:00,31.2,28.6,30.07,SW,218,3.0,3.0,90,0.00,,,0.00,0,Wunderground v.1.15,2013-12-16 08:10:00,
2013-12-16 03:15:00,31.2,28.6,30.07,SW,216,3.0,7.0,90,0.00,,,0.00,0,Wunderground v.1.15,2013-12-16 08:15:00,
2013-12-16 03:20:00,31.3,28.7,30.06,SW,231,2.0,2.0,90,0.00,,,0.00,0,Wunderground v.1.15,2013-12-16 08:20:00,
2013-12-16 03:25:00,31.3,28.7,30.06,WSW,248,2.0,7.0,90,0.00,,,0.00,0,Wunderground v.1.15,2013-12-16 08:25:00,
2013-12-16 03:30:00,31.3,28.7,30.07,SW,226,2.0,7.0,90,0.00,,,0.00,0,Wunderground v.1.15,2013-12-16 08:30:00,
2013-12-16 03:35:00,31.3,28.7,30.07,SW,217,2.0,7.0,90,0.00,,,0.00,0,Wunderground v.1.15,2013-12-16 08:35:00,
2013-12-16 03:45:00,31.4,28.8,30.06,WSW,243,2.0,7.0,90,0.00,,,0.00,0,Wunderground v.1.15,2013-12-16 08:45:00,
2013-12-16 03:55:00,31.5,28.9,30.06,West,278,1.0,7.0,90,0.00,,,0.00,0,Wunderground v.1.15,2013-12-16 08:55:00,
2013-12-16 04:00:00,31.5,28.9,30.06,SW,226,1.0,7.0,90,0.00,,,0.00,0,Wunderground v.1.15,2013-12-16 09:00:00,
2013-12-16 04:05:00,31.5,28.9,30.05,SW,219,1.0,7.0,90,0.00,,,0.00,0,Wunderground v.1.15,2013-12-16 09:05:00,
2013-12-16 04:10:00,31.5,28.9,30.05,WSW,248,1.0,1.0,90,0.00,,,0.00,0,Wunderground v.1.15,2013-12-16 09:10:00,
2013-12-16 04:15:00,31.5,28.9,30.05,West,266,1.0,7.0,90,0.00,,,0.00,0,Wunderground v.1.15,2013-12-16 09:15:00,
2013-12-16 04:20:00,31.5,28.9,30.05,WNW,287,2.0,2.0,90,0.00,,,0.00,0,Wunderground v.1.15,2013-12-16 09:20:00,
2013-12-16 04:25:00,31.5,28.9,30.04,SSW,194,1.0,3.0,90,0.00,,,0.00,0,Wunderground v.1.15,2013-12-16 09:25:00,
2013-12-16 04:35:00,31.5,28.9,30.04,SSW,194,2.0,7.0,90,0.00,,,0.00,0,Wunderground v.1.15,2013-12-16 09:35:00,
2013-12-16 04:40:00,31.5,28.9,30.04,SW,214,2.0,2.0,90,0.00,,,0.00,0,Wunderground v.1.15,2013-12-16 09:40:00,
2013-12-16 04:45:00,31.6,29.0,30.03,SW,214,1.0,7.0,90,0.00,,,0.00,0,Wunderground v.1.15,2013-12-16 09:45:00,
2013-12-16 04:50:00,31.6,29.0,30.03,South,181,1.0,1.0,90,0.00,,,0.00,0,Wunderground v.1.15,2013-12-16 09:50:00,
2013-12-16 04:55:00,31.6,29.0,30.03,SSW,211,1.0,5.0,90,0.00,,,0.00,0,Wunderground v.1.15,2013-12-16 09:55:00,
2013-12-16 05:00:00,31.6,29.0,30.03,SW,219,2.0,2.0,90,0.00,,,0.00,0,Wunderground v.1.15,2013-12-16 10:00:00,
2013-12-16 05:05:00,31.6,29.0,30.03,SW,226,2.0,7.0,90,0.00,,,0.00,0,Wunderground v.1.15,2013-12-16 10:05:00,
2013-12-16 05:15:00,31.6,29.0,30.03,South,188,0.0,7.0,90,0.00,,,0.00,0,Wunderground v.1.15,2013-12-16 10:15:00,
2013-12-16 05:20:00,31.6,29.0,30.03,SW,228,1.0,1.0,90,0.00,,,0.00,0,Wunderground v.1.15,2013-12-16 10:20:00,
2013-12-16 05:25:00,31.6,29.0,30.03,SE,134,1.0,2.0,90,0.00,,,0.00,0,Wunderground v.1.15,2013-12-16 10:25:00,
2013-12-16 05:30:00,31.7,29.1,30.03,South,169,1.0,7.0,90,0.00,,,0.00,0,Wunderground v.1.15,2013-12-16 10:30:00,
2013-12-16 05:35:00,31.7,29.1,30.03,South,183,1.0,7.0,90,0.00,,,0.00,0,Wunderground v.1.15,2013-12-16 10:35:00,
2013-12-16 05:40:00,31.7,29.1,30.02,SW,222,1.0,1.0,90,0.00,,,0.00,0,Wunderground v.1.15,2013-12-16 10:40:00,
2013-12-16 05:45:00,31.7,29.1,30.03,SSW,209,1.0,7.0,90,0.00,,,0.00,0,Wunderground v.1.15,2013-12-16 10:45:00,
2013-12-16 05:55:00,31.7,29.1,30.03,SW,234,1.0,7.0,90,0.00,,,0.00,0,Wunderground v.1.15,2013-12-16 10:55:00,
2013-12-16 06:00:00,31.7,29.1,30.03,SSW,199,1.0,7.0,90,0.00,,,0.00,0,Wunderground v.1.15,2013-12-16 11:00:00,
2013-12-16 06:05:00,31.8,29.2,30.03,SSW,212,1.0,7.0,90,0.00,,,0.00,0,Wunderground v.1.15,2013-12-16 11:05:00,
2013-12-16 06:15:00,31.8,29.2,30.02,SSE,158,1.0,7.0,90,0.00,,,0.00,0,Wunderground v.1.15,2013-12-16 11:15:00,
2013-12-16 06:20:00,31.9,29.3,30.02,SSW,201,2.0,2.0,90,0.00,,,0.00,0,Wunderground v.1.15,2013-12-16 11:20:00,
2013-12-16 06:25:00,31.9,29.3,30.02,SSW,197,1.0,7.0,90,0.00,,,0.00,0,Wunderground v.1.15,2013-12-16 11:25:00,
2013-12-16 06:30:00,31.9,29.3,30.02,ESE,111,1.0,1.0,90,0.00,,,0.00,0,Wunderground v.1.15,2013-12-16 11:30:00,
2013-12-16 06:40:00,32.0,29.4,30.02,South,189,1.0,7.0,90,0.00,,,0.00,0,Wunderground v.1.15,2013-12-16 11:40:00,
2013-12-16 06:45:00,32.1,29.5,30.03,South,189,0.0,7.0,90,0.00,,,0.00,0,Wunderground v.1.15,2013-12-16 11:45:00,
2013-12-16 06:50:00,32.1,29.5,30.03,South,189,0.0,7.0,90,0.00,,,0.00,0,Wunderground v.1.15,2013-12-16 11:50:00,
2013-12-16 06:55:00,32.1,29.5,30.03,South,189,0.0,7.0,90,0.00,,,0.00,0,Wunderground v.1.15,2013-12-16 11:55:00,
2013-12-16 07:00:00,32.1,29.5,30.03,SSW,193,0.0,7.0,90,0.00,,,0.00,0,Wunderground v.1.15,2013-12-16 12:00:00,
2013-12-16 07:05:00,32.2,29.6,30.03,South,181,0.0,7.0,90,0.00,,,0.00,0,Wunderground v.1.15,2013-12-16 12:05:00,
2013-12-16 07:10:00,32.2,29.6,30.03,South,190,0.0,7.0,90,0.00,,,0.00,0,Wunderground v.1.15,2013-12-16 12:10:00,
2013-12-16 07:19:00,32.3,29.7,30.03,SSE,162,0.0,7.0,90,0.00,,,0.00,0,Wunderground v.1.15,2013-12-16 12:19:00,
2013-12-16 07:25:00,32.3,29.4,30.04,NW,314,1.0,7.0,89,0.00,,,0.00,0,Wunderground v.1.15,2013-12-16 12:25:00,
2013-12-16 07:30:00,32.3,29.4,30.04,SSW,201,1.0,1.0,89,0.00,,,0.00,0,Wunderground v.1.15,2013-12-16 12:30:00,
2013-12-16 07:35:00,32.4,29.8,30.04,SSW,192,1.0,7.0,90,0.00,,,0.00,0,Wunderground v.1.15,2013-12-16 12:35:00,
2013-12-16 07:40:00,32.4,29.8,30.04,ESE,111,0.0,7.0,90,0.00,,,0.00,0,Wunderground v.1.15,2013-12-16 12:40:00,
2013-12-16 07:45:00,32.5,29.9,30.04,WSW,245,1.0,7.0,90,0.00,,,0.00,0,Wunderground v.1.15,2013-12-16 12:45:00,
2013-12-16 07:50:00,32.7,30.1,30.04,WSW,245,0.0,7.0,90,0.00,,,0.00,0,Wunderground v.1.15,2013-12-16 12:50:00,
2013-12-16 07:55:00,32.6,29.7,30.04,South,169,0.0,7.0,89,0.00,,,0.00,0,Wunderground v.1.15,2013-12-16 12:55:00,
2013-12-16 08:00:00,32.6,29.7,30.04,SSW,210,0.0,7.0,89,0.00,,,0.00,0,Wunderground v.1.15,2013-12-16 13:00:00,
2013-12-16 08:10:00,33.0,30.1,30.04,SSE,160,0.0,7.0,89,0.00,,,0.00,5,Wunderground v.1.15,2013-12-16 13:10:00,
2013-12-16 08:15:00,32.9,30.0,30.04,SSW,209,0.0,7.0,89,0.00,,,0.00,7,Wunderground v.1.15,2013-12-16 13:15:00,
2013-12-16 08:20:00,32.8,29.9,30.04,SSW,201,0.0,7.0,89,0.00,,,0.00,9,Wunderground v.1.15,2013-12-16 13:20:00,
2013-12-16 08:25:00,32.7,29.8,30.04,SSW,201,0.0,7.0,89,0.00,,,0.00,12,Wunderground v.1.15,2013-12-16 13:25:00,
2013-12-16 08:30:00,32.7,29.8,30.04,South,174,0.0,7.0,89,0.00,,,0.00,14,Wunderground v.1.15,2013-12-16 13:30:00,
2013-12-16 08:35:00,32.6,29.7,30.04,SE,128,0.0,7.0,89,0.00,,,0.00,18,Wunderground v.1.15,2013-12-16 13:35:00,
2013-12-16 08:40:00,32.7,29.8,30.04,SW,216,0.0,7.0,89,0.00,,,0.00,21,Wunderground v.1.15,2013-12-16 13:40:00,
2013-12-16 08:49:00,32.7,29.8,30.04,SSE,164,0.0,7.0,89,0.00,,,0.00,28,Wunderground v.1.15,2013-12-16 13:49:00,
2013-12-16 08:55:00,32.7,29.8,30.04,SSW,192,0.0,7.0,89,0.00,,,0.00,33,Wunderground v.1.15,2013-12-16 13:55:00,
2013-12-16 09:00:00,32.7,29.8,30.04,SSE,167,1.0,1.0,89,0.00,,,0.00,39,Wunderground v.1.15,2013-12-16 14:00:00,
2013-12-16 09:05:00,32.8,29.9,30.04,SSW,200,1.0,3.0,89,0.00,,,0.00,47,Wunderground v.1.15,2013-12-16 14:05:00,
2013-12-16 09:10:00,33.0,30.1,30.04,WSW,237,0.0,7.0,89,0.00,,,0.00,58,Wunderground v.1.15,2013-12-16 14:10:00,
2013-12-16 09:15:00,33.7,31.1,30.04,SSW,210,1.0,7.0,90,0.00,,,0.00,67,Wunderground v.1.15,2013-12-16 14:15:00,
2013-12-16 09:20:00,34.1,31.2,30.04,SSW,205,1.0,1.0,89,0.00,,,0.00,76,Wunderground v.1.15,2013-12-16 14:20:00,
2013-12-16 09:25:00,34.0,30.8,30.04,SSE,159,1.0,2.0,88,0.00,,,0.00,83,Wunderground v.1.15,2013-12-16 14:25:00,
2013-12-16 09:34:00,33.8,30.6,30.04,South,169,1.0,7.0,88,0.00,,,0.00,104,Wunderground v.1.15,2013-12-16 14:34:00,
2013-12-16 09:40:00,34.0,30.8,30.04,SE,145,1.0,1.0,88,0.00,,,0.00,104,Wunderground v.1.15,2013-12-16 14:40:00,
2013-12-16 09:45:00,34.1,30.9,30.05,SE,138,0.0,7.0,88,0.00,,,0.00,114,Wunderground v.1.15,2013-12-16 14:45:00,
2013-12-16 09:50:00,34.2,30.7,30.05,SE,139,0.0,7.0,87,0.00,,,0.00,134,Wunderground v.1.15,2013-12-16 14:50:00,
2013-12-16 09:55:00,34.2,30.7,30.05,SSE,168,0.0,7.0,87,0.00,,,0.00,148,Wunderground v.1.15,2013-12-16 14:55:00,
2013-12-16 10:00:00,34.3,30.8,30.04,SSE,150,1.0,1.0,87,0.00,,,0.00,165,Wunderground v.1.15,2013-12-16 15:00:00,
2013-12-16 10:05:00,34.5,30.7,30.03,South,172,1.0,7.0,86,0.00,,,0.00,188,Wunderground v.1.15,2013-12-16 15:05:00,
2013-12-16 10:10:00,34.6,31.1,30.04,SSE,151,2.0,2.0,87,0.00,,,0.00,265,Wunderground v.1.15,2013-12-16 15:10:00,
2013-12-16 10:15:00,34.7,30.9,30.04,South,181,2.0,7.0,86,0.00,,,0.00,294,Wunderground v.1.15,2013-12-16 15:15:00,
2013-12-16 10:25:00,35.6,31.5,30.04,SSW,207,1.0,4.0,85,0.00,,,0.00,250,Wunderground v.1.15,2013-12-16 15:25:00,
2013-12-16 10:30:00,35.8,31.4,30.04,SW,214,2.0,7.0,84,0.00,,,0.00,390,Wunderground v.1.15,2013-12-16 15:30:00,
2013-12-16 10:35:00,36.1,31.7,30.04,SSE,147,3.0,7.0,84,0.00,,,0.00,459,Wunderground v.1.15,2013-12-16 15:35:00,
2013-12-16 10:40:00,36.4,31.7,30.04,SW,215,3.0,3.0,83,0.00,,,0.00,195,Wunderground v.1.15,2013-12-16 15:40:00,
2013-12-16 10:45:00,36.0,31.3,30.04,WSW,237,4.0,4.0,83,0.00,,,0.00,163,Wunderground v.1.15,2013-12-16 15:45:00,
2013-12-16 10:50:00,36.0,31.6,30.04,South,181,3.0,3.0,84,0.00,,,0.00,264,Wunderground v.1.15,2013-12-16 15:50:00,
2013-12-16 10:55:00,36.4,32.3,30.04,SSW,203,2.0,7.0,85,0.00,,,0.00,355,Wunderground v.1.15,2013-12-16 15:55:00,
2013-12-16 11:05:00,36.6,32.2,30.04,SSW,203,3.0,7.0,84,0.00,,,0.00,348,Wunderground v.1.15,2013-12-16 16:05:00,
2013-12-16 11:10:00,36.8,32.1,30.04,SW,222,2.0,2.0,83,0.00,,,0.00,190,Wunderground v.1.15,2013-12-16 16:10:00,
2013-12-16 11:15:00,36.9,32.2,30.04,WSW,251,3.0,3.0,83,0.00,,,0.00,399,Wunderground v.1.15,2013-12-16 16:15:00,
2013-12-16 11:20:00,37.0,32.3,30.03,SW,228,3.0,3.0,83,0.00,,,0.00,483,Wunderground v.1.15,2013-12-16 16:20:00,
2013-12-16 11:25:00,37.3,32.6,30.03,SW,215,3.0,11.0,83,0.00,,,0.00,459,Wunderground v.1.15,2013-12-16 16:25:00,
2013-12-16 11:30:00,37.2,32.2,30.03,SW,233,4.0,4.0,82,0.00,,,0.01,589,Wunderground v.1.15,2013-12-16 16:30:00,
2013-12-16 11:35:00,37.5,32.5,30.03,WSW,256,5.0,5.0,82,0.00,,,0.01,290,Wunderground v.1.15,2013-12-16 16:35:00,
2013-12-16 11:40:00,37.6,32.6,30.03,WNW,303,4.0,7.0,82,0.00,,,0.01,241,Wunderground v.1.15,2013-12-16 16:40:00,
2013-12-16 11:50:00,37.4,32.4,30.02,SSW,193,4.0,7.0,82,0.05,,,0.02,290,Wunderground v.1.15,2013-12-16 16:50:00,
2013-12-16 11:55:00,37.8,33.1,30.02,WSW,257,3.0,7.0,83,0.04,,,0.02,336,Wunderground v.1.15,2013-12-16 16:55:00,
2013-12-16 12:00:00,38.0,33.0,30.01,WNW,289,3.0,7.0,82,0.04,,,0.03,302,Wunderground v.1.15,2013-12-16 17:00:00,
2013-12-16 12:05:00,38.1,32.8,30.01,SW,214,3.0,7.0,81,0.07,,,0.04,288,Wunderground v.1.15,2013-12-16 17:05:00,
2013-12-16 12:10:00,38.2,32.9,30.00,WSW,256,3.0,7.0,81,0.10,,,0.04,329,Wunderground v.1.15,2013-12-16 17:10:00,
2013-12-16 12:15:00,38.5,33.2,30.00,WNW,283,3.0,7.0,81,0.12,,,0.05,413,Wunderground v.1.15,2013-12-16 17:15:00,
2013-12-16 12:20:00,39.0,33.7,30.00,West,259,3.0,3.0,81,0.12,,,0.06,670,Wunderground v.1.15,2013-12-16 17:20:00,
2013-12-16 12:29:00,39.3,33.3,30.00,West,268,3.0,7.0,79,0.09,,,0.08,397,Wunderground v.1.15,2013-12-16 17:29:00,
2013-12-16 12:34:00,39.2,33.2,30.00,WSW,247,5.0,7.0,79,0.09,,,0.08,230,Wunderground v.1.15,2013-12-16 17:34:00,
2013-12-16 12:40:00,39.1,33.1,30.00,WSW,241,5.0,5.0,79,0.06,,,0.09,218,Wunderground v.1.15,2013-12-16 17:40:00,
2013-12-16 12:45:00,39.2,33.5,29.99,West,270,3.0,7.0,80,0.06,,,0.09,204,Wunderground v.1.15,2013-12-16 17:45:00,
2013-12-16 12:50:00,39.5,33.5,29.99,WSW,239,2.0,7.0,79,0.06,,,0.10,214,Wunderground v.1.15,2013-12-16 17:50:00,
2013-12-16 12:55:00,39.6,33.6,29.99,SW,220,2.0,7.0,79,0.06,,,0.10,236,Wunderground v.1.15,2013-12-16 17:55:00,
2013-12-16 13:00:00,39.7,33.7,29.99,WSW,247,3.0,7.0,79,0.05,,,0.10,255,Wunderground v.1.15,2013-12-16 18:00:00,
2013-12-16 13:05:00,40.0,34.0,29.99,WSW,237,2.0,7.0,79,0.05,,,0.11,313,Wunderground v.1.15,2013-12-16 18:05:00,
2013-12-16 13:10:00,40.3,34.3,29.98,South,189,2.0,7.0,79,0.05,,,0.11,313,Wunderground v.1.15,2013-12-16 18:10:00,
2013-12-16 13:20:00,40.4,34.1,29.98,SW,223,3.0,3.0,78,0.06,,,0.12,234,Wunderground v.1.15,2013-12-16 18:20:00,
2013-12-16 13:25:00,40.4,34.1,29.98,SW,218,3.0,7.0,78,0.06,,,0.13,267,Wunderground v.1.15,2013-12-16 18:25:00,
2013-12-16 13:30:00,40.5,34.2,29.97,SSW,197,2.0,2.0,78,0.08,,,0.14,206,Wunderground v.1.15,2013-12-16 18:30:00,
2013-12-16 13:35:00,40.6,34.3,29.97,WSW,250,2.0,7.0,78,0.08,,,0.14,336,Wunderground v.1.15,2013-12-16 18:35:00,
2013-12-16 13:40:00,40.9,34.2,29.97,West,261,2.0,2.0,77,0.06,,,0.15,315,Wunderground v.1.15,2013-12-16 18:40:00,
2013-12-16 13:45:00,41.4,34.7,29.97,SW,233,2.0,7.0,77,0.06,,,0.15,167,Wunderground v.1.15,2013-12-16 18:45:00,
2013-12-16 13:50:00,41.5,34.5,29.97,WSW,239,2.0,7.0,76,0.08,,,0.16,163,Wunderground v.1.15,2013-12-16 18:50:00,
2013-12-16 13:55:00,41.1,34.1,29.97,SW,220,3.0,7.0,76,0.07,,,0.16,190,Wunderground v.1.15,2013-12-16 18:55:00,
2013-12-16 14:05:00,41.1,34.4,29.96,West,260,1.0,7.0,77,0.05,,,0.17,209,Wunderground v.1.15,2013-12-16 19:05:00,
2013-12-16 14:10:00,41.8,35.1,29.96,SW,233,1.0,7.0,77,0.06,,,0.18,464,Wunderground v.1.15,2013-12-16 19:10:00,
2013-12-16 14:15:00,42.2,34.8,29.96,SSW,211,2.0,7.0,75,0.06,,,0.18,413,Wunderground v.1.15,2013-12-16 19:15:00,
2013-12-16 14:20:00,42.7,35.0,29.95,West,264,4.0,4.0,74,0.05,,,0.18,374,Wunderground v.1.15,2013-12-16 19:20:00,
2013-12-16 14:25:00,42.6,34.9,29.96,SW,217,4.0,7.0,74,0.04,,,0.19,220,Wunderground v.1.15,2013-12-16 19:25:00,
2013-12-16 14:30:00,42.4,34.7,29.96,West,277,3.0,7.0,74,0.04,,,0.19,239,Wunderground v.1.15,2013-12-16 19:30:00,
2013-12-16 14:35:00,42.7,35.3,29.96,WSW,241,2.0,7.0,75,0.05,,,0.20,397,Wunderground v.1.15,2013-12-16 19:35:00,
2013-12-16 14:45:00,42.6,34.9,29.96,South,173,2.0,7.0,74,0.05,,,0.20,199,Wunderground v.1.15,2013-12-16 19:45:00,
2013-12-16 14:55:00,43.2,35.5,29.96,South,180,1.0,7.0,74,0.04,,,0.21,141,Wunderground v.1.15,2013-12-16 19:55:00,
2013-12-16 15:00:00,43.7,35.6,29.96,SSW,211,1.0,7.0,73,0.05,,,0.22,329,Wunderground v.1.15,2013-12-16 20:00:00,
2013-12-16 15:05:00,44.1,35.6,29.95,South,191,1.0,7.0,72,0.05,,,0.22,299,Wunderground v.1.15,2013-12-16 20:05:00,
2013-12-16 15:10:00,44.5,36.0,29.95,South,174,1.0,7.0,72,0.05,,,0.22,265,Wunderground v.1.15,2013-12-16 20:10:00,
2013-12-16 15:15:00,44.4,35.9,29.95,WSW,253,2.0,7.0,72,0.04,,,0.23,290,Wunderground v.1.15,2013-12-16 20:15:00,
2013-12-16 15:20:00,44.7,36.2,29.95,WNW,287,1.0,7.0,72,0.04,,,0.23,283,Wunderground v.1.15,2013-12-16 20:20:00,
2013-12-16 15:25:00,44.7,36.2,29.95,SW,227,1.0,7.0,72,0.04,,,0.23,267,Wunderground v.1.15,2013-12-16 20:25:00,
2013-12-16 15:35:00,44.6,35.8,29.95,SSW,204,2.0,7.0,71,0.05,,,0.24,243,Wunderground v.1.15,2013-12-16 20:35:00,
2013-12-16 15:40:00,44.6,36.1,29.95,SSW,195,1.0,7.0,72,0.04,,,0.24,248,Wunderground v.1.15,2013-12-16 20:40:00,
2013-12-16 15:45:00,44.6,35.8,29.96,South,174,2.0,7.0,71,0.00,,,0.25,223,Wunderground v.1.15,2013-12-16 20:45:00,
2013-12-16 15:50:00,44.6,36.1,29.95,South,170,3.0,3.0,72,0.00,,,0.25,206,Wunderground v.1.15,2013-12-16 20:50:00,
2013-12-16 16:00:00,45.2,36.4,29.95,WSW,241,1.0,7.0,71,0.05,,,0.26,167,Wunderground v.1.15,2013-12-16 21:00:00,
2013-12-16 16:05:00,45.1,35.9,29.95,WSW,256,1.0,7.0,70,0.05,,,0.26,144,Wunderground v.1.15,2013-12-16 21:05:00,
2013-12-16 16:10:00,45.0,35.8,29.96,SW,222,2.0,7.0,70,0.04,,,0.26,141,Wunderground v.1.15,2013-12-16 21:10:00,
2013-12-16 16:20:00,44.7,35.9,29.96,SSW,206,3.0,3.0,71,0.00,,,0.27,121,Wunderground v.1.15,2013-12-16 21:20:00,
2013-12-16 16:25:00,44.6,35.8,29.96,SW,234,2.0,7.0,71,0.00,,,0.27,105,Wunderground v.1.15,2013-12-16 21:25:00,
2013-12-16 16:30:00,44.7,35.9,29.96,SW,227,2.0,7.0,71,0.00,,,0.27,91,Wunderground v.1.15,2013-12-16 21:30:00,
2013-12-16 16:35:00,44.6,35.8,29.96,WNW,287,2.0,7.0,71,0.04,,,0.28,79,Wunderground v.1.15,2013-12-16 21:35:00,
2013-12-16 16:40:00,44.6,36.1,29.96,South,187,1.0,7.0,72,0.04,,,0.28,44,Wunderground v.1.15,2013-12-16 21:40:00,
2013-12-16 16:45:00,44.3,35.8,29.96,SSW,207,1.0,7.0,72,0.04,,,0.28,37,Wunderground v.1.15,2013-12-16 21:45:00,
2013-12-16 16:50:00,44.0,35.6,29.96,SW,235,2.0,7.0,72,0.00,,,0.28,32,Wunderground v.1.15,2013-12-16 21:50:00,
2013-12-16 17:00:00,43.6,35.5,29.97,WSW,248,1.0,7.0,73,0.00,,,0.29,23,Wunderground v.1.15,2013-12-16 22:00:00,
2013-12-16 17:10:00,43.1,35.4,29.97,SW,232,0.0,7.0,74,0.00,,,0.30,14,Wunderground v.1.15,2013-12-16 22:10:00,
2013-12-16 17:15:00,42.9,35.5,29.97,SW,232,0.0,7.0,75,0.00,,,0.30,11,Wunderground v.1.15,2013-12-16 22:15:00,
2013-12-16 17:20:00,42.6,35.6,29.98,SW,232,0.0,7.0,76,0.00,,,0.30,7,Wunderground v.1.15,2013-12-16 22:20:00,
2013-12-16 17:25:00,42.2,35.5,29.98,SW,232,0.0,7.0,77,0.00,,,0.30,5,Wunderground v.1.15,2013-12-16 22:25:00,
2013-12-16 17:30:00,41.5,35.5,29.98,SW,232,0.0,7.0,79,0.00,,,0.30,0,Wunderground v.1.15,2013-12-16 22:30:00,
2013-12-16 17:40:00,40.0,34.3,29.98,SW,232,0.0,7.0,80,0.00,,,0.31,0,Wunderground v.1.15,2013-12-16 22:40:00,
2013-12-16 17:50:00,38.6,33.9,29.98,SW,232,0.0,7.0,83,0.00,,,0.31,0,Wunderground v.1.15,2013-12-16 22:50:00,
2013-12-16 17:55:00,37.9,33.5,29.98,SW,232,0.0,7.0,84,0.00,,,0.31,0,Wunderground v.1.15,2013-12-16 22:55:00,
2013-12-16 18:00:00,37.4,33.3,29.98,SW,232,0.0,7.0,85,0.00,,,0.31,0,Wunderground v.1.15,2013-12-16 23:00:00,
2013-12-16 18:05:00,36.9,33.1,29.98,SW,232,0.0,7.0,86,0.00,,,0.32,0,Wunderground v.1.15,2013-12-16 23:05:00,
2013-12-16 18:10:00,36.5,32.7,29.98,SW,232,0.0,7.0,86,0.00,,,0.32,0,Wunderground v.1.15,2013-12-16 23:10:00,
2013-12-16 18:15:00,36.1,32.6,29.98,SW,232,0.0,7.0,87,0.00,,,0.32,0,Wunderground v.1.15,2013-12-16 23:15:00,
2013-12-16 18:20:00,35.8,32.3,29.98,SW,232,0.0,7.0,87,0.00,,,0.32,0,Wunderground v.1.15,2013-12-16 23:20:00,
2013-12-16 18:30:00,35.3,32.1,29.99,SW,232,0.0,7.0,88,0.00,,,0.32,0,Wunderground v.1.15,2013-12-16 23:30:00,
2013-12-16 18:35:00,35.0,32.1,29.99,SW,232,0.0,7.0,89,0.00,,,0.32,0,Wunderground v.1.15,2013-12-16 23:35:00,
2013-12-16 18:40:00,34.7,31.8,29.99,SW,232,0.0,7.0,89,0.00,,,0.32,0,Wunderground v.1.15,2013-12-16 23:40:00,
2013-12-16 18:50:00,34.2,31.6,29.99,SW,232,0.0,7.0,90,0.00,,,0.32,0,Wunderground v.1.15,2013-12-16 23:50:00,
2013-12-16 18:55:00,34.0,31.4,29.99,SW,232,0.0,7.0,90,0.00,,,0.32,0,Wunderground v.1.15,2013-12-16 23:55:00,
2013-12-16 19:00:00,33.8,31.2,29.98,SW,232,0.0,7.0,90,0.00,,,0.32,0,Wunderground v.1.15,2013-12-17 00:00:00,
2013-12-16 19:05:00,33.7,31.4,29.98,SW,232,0.0,7.0,91,0.00,,,0.32,0,Wunderground v.1.15,2013-12-17 00:05:00,
2013-12-16 19:15:00,33.3,31.0,29.98,SW,232,0.0,7.0,91,0.00,,,0.32,0,Wunderground v.1.15,2013-12-17 00:15:00,
2013-12-16 19:19:00,33.2,30.9,29.98,SW,231,0.0,7.0,91,0.00,,,0.32,0,Wunderground v.1.15,2013-12-17 00:19:00,
2013-12-16 19:25:00,33.2,31.1,29.98,SW,231,0.0,7.0,92,0.00,,,0.32,0,Wunderground v.1.15,2013-12-17 00:25:00,
2013-12-16 19:30:00,33.1,31.0,29.98,SW,231,0.0,7.0,92,0.00,,,0.32,0,Wunderground v.1.15,2013-12-17 00:30:00,
2013-12-16 19:35:00,33.1,31.0,29.98,SW,231,0.0,7.0,92,0.00,,,0.32,0,Wunderground v.1.15,2013-12-17 00:35:00,
2013-12-16 19:40:00,33.0,30.9,29.98,SW,231,0.0,7.0,92,0.00,,,0.33,0,Wunderground v.1.15,2013-12-17 00:40:00,
2013-12-16 19:45:00,33.1,31.3,29.98,SW,231,0.0,7.0,93,0.00,,,0.33,0,Wunderground v.1.15,2013-12-17 00:45:00,
2013-12-16 19:50:00,33.3,31.5,29.98,SSW,198,0.0,7.0,93,0.00,,,0.33,0,Wunderground v.1.15,2013-12-17 00:50:00,
2013-12-16 19:59:00,33.8,32.0,29.99,SSW,198,0.0,7.0,93,0.00,,,0.33,0,Wunderground v.1.15,2013-12-17 00:59:00,
2013-12-16 20:04:00,33.9,32.1,29.99,SSW,198,0.0,7.0,93,0.00,,,0.33,0,Wunderground v.1.15,2013-12-17 01:04:00,
2013-12-16 20:10:00,34.1,32.3,29.99,SSW,198,0.0,7.0,93,0.00,,,0.33,0,Wunderground v.1.15,2013-12-17 01:10:00,
2013-12-16 20:15:00,34.2,32.4,29.99,SSW,198,0.0,7.0,93,0.00,,,0.33,0,Wunderground v.1.15,2013-12-17 01:15:00,
2013-12-16 20:20:00,34.3,32.5,29.99,SSW,198,0.0,7.0,93,0.00,,,0.33,0,Wunderground v.1.15,2013-12-17 01:20:00,
2013-12-16 20:25:00,34.3,32.5,29.98,SSW,198,0.0,7.0,93,0.00,,,0.33,0,Wunderground v.1.15,2013-12-17 01:25:00,
2013-12-16 20:35:00,34.2,32.4,29.98,SSW,198,0.0,7.0,93,0.00,,,0.33,0,Wunderground v.1.15,2013-12-17 01:35:00,
2013-12-16 20:40:00,34.2,32.4,29.98,SSW,198,0.0,7.0,93,0.00,,,0.33,0,Wunderground v.1.15,2013-12-17 01:40:00,
2013-12-16 20:49:00,34.0,32.2,29.98,SSW,198,0.0,7.0,93,0.00,,,0.33,0,Wunderground v.1.15,2013-12-17 01:49:00,
2013-12-16 20:55:00,33.8,32.0,29.97,SSW,198,0.0,7.0,93,0.00,,,0.33,0,Wunderground v.1.15,2013-12-17 01:55:00,
2013-12-16 21:00:00,33.7,31.9,29.97,SSW,198,0.0,7.0,93,0.00,,,0.33,0,Wunderground v.1.15,2013-12-17 02:00:00,
2013-12-16 21:05:00,33.7,31.9,29.97,SSW,198,0.0,7.0,93,0.00,,,0.33,0,Wunderground v.1.15,2013-12-17 02:05:00,
2013-12-16 21:10:00,33.8,32.3,29.97,SSW,196,0.0,7.0,94,0.00,,,0.33,0,Wunderground v.1.15,2013-12-17 02:10:00,
2013-12-16 21:15:00,34.1,32.6,29.96,SW,225,0.0,7.0,94,0.00,,,0.33,0,Wunderground v.1.15,2013-12-17 02:15:00,
2013-12-16 21:20:00,34.2,32.4,29.97,South,181,0.0,7.0,93,0.00,,,0.33,0,Wunderground v.1.15,2013-12-17 02:20:00,
2013-12-16 21:25:00,34.6,33.1,29.97,SW,226,0.0,7.0,94,0.00,,,0.33,0,Wunderground v.1.15,2013-12-17 02:25:00,
2013-12-16 21:35:00,35.7,34.1,29.98,South,171,0.0,7.0,94,0.00,,,0.33,0,Wunderground v.1.15,2013-12-17 02:35:00,
2013-12-16 21:39:00,36.0,34.2,29.97,SSW,201,0.0,7.0,93,0.00,,,0.33,0,Wunderground v.1.15,2013-12-17 02:39:00,
2013-12-16 21:45:00,36.1,34.0,29.98,SSW,201,0.0,7.0,92,0.00,,,0.33,0,Wunderground v.1.15,2013-12-17 02:45:00,
2013-12-16 21:50:00,36.3,33.9,29.98,WSW,254,0.0,7.0,91,0.00,,,0.33,0,Wunderground v.1.15,2013-12-17 02:50:00,
2013-12-16 21:55:00,36.6,33.9,29.98,WSW,254,1.0,7.0,90,0.00,,,0.33,0,Wunderground v.1.15,2013-12-17 02:55:00,
2013-12-16 22:00:00,36.2,33.3,29.98,WSW,254,1.0,1.0,89,0.00,,,0.33,0,Wunderground v.1.15,2013-12-17 03:00:00,
2013-12-16 22:05:00,35.9,33.0,29.99,WSW,254,0.0,7.0,89,0.00,,,0.33,0,Wunderground v.1.15,2013-12-17 03:05:00,
2013-12-16 22:15:00,35.7,33.1,29.99,WSW,254,0.0,7.0,90,0.00,,,0.33,0,Wunderground v.1.15,2013-12-17 03:15:00,
2013-12-16 22:25:00,35.4,32.8,29.98,WSW,254,0.0,7.0,90,0.00,,,0.33,0,Wunderground v.1.15,2013-12-17 03:25:00,
2013-12-16 22:30:00,35.2,32.8,29.98,WSW,253,0.0,7.0,91,0.00,,,0.33,0,Wunderground v.1.15,2013-12-17 03:30:00,
2013-12-16 22:35:00,35.6,33.5,29.98,WSW,251,0.0,7.0,92,0.00,,,0.33,0,Wunderground v.1.15,2013-12-17 03:35:00,
2013-12-16 22:40:00,36.7,34.3,29.98,SW,233,1.0,1.0,91,0.00,,,0.33,0,Wunderground v.1.15,2013-12-17 03:40:00,
2013-12-16 22:45:00,37.5,34.8,29.98,WSW,245,1.0,2.0,90,0.00,,,0.33,0,Wunderground v.1.15,2013-12-17 03:45:00,
2013-12-16 22:55:00,39.2,35.4,29.97,WSW,252,2.0,7.0,86,0.00,,,0.33,0,Wunderground v.1.15,2013-12-17 03:55:00,
2013-12-16 23:00:00,40.0,35.6,29.97,SW,228,2.0,2.0,84,0.00,,,0.33,0,Wunderground v.1.15,2013-12-17 04:00:00,
2013-12-16 23:10:00,41.0,35.6,29.97,West,259,3.0,3.0,81,0.00,,,0.33,0,Wunderground v.1.15,2013-12-17 04:10:00,
2013-12-16 23:15:00,41.2,35.8,29.97,WSW,237,2.0,7.0,81,0.00,,,0.33,0,Wunderground v.1.15,2013-12-17 04:15:00,
2013-12-16 23:20:00,41.2,35.5,29.97,WSW,256,2.0,7.0,80,0.00,,,0.33,0,Wunderground v.1.15,2013-12-17 04:20:00,
2013-12-16 23:25:00,41.1,35.4,29.97,West,270,2.0,7.0,80,0.00,,,0.33,0,Wunderground v.1.15,2013-12-17 04:25:00,
2013-12-16 23:30:00,40.9,35.2,29.97,WSW,241,2.0,2.0,80,0.00,,,0.33,0,Wunderground v.1.15,2013-12-17 04:30:00,
2013-12-16 23:35:00,40.5,35.1,29.97,West,264,2.0,7.0,81,0.00,,,0.33,0,Wunderground v.1.15,2013-12-17 04:35:00,
2013-12-16 23:40:00,40.2,34.8,29.97,WSW,255,2.0,7.0,81,0.00,,,0.33,0,Wunderground v.1.15,2013-12-17 04:40:00,
2013-12-16 23:45:00,39.9,34.9,29.97,West,275,2.0,7.0,82,0.00,,,0.33,0,Wunderground v.1.15,2013-12-17 04:45:00,
2013-12-16 23:55:00,39.7,35.0,29.96,WSW,255,2.0,7.0,83,0.00,,,0.33,0,Wunderground v.1.15,2013-12-17 04:55:00,
2013-12-16 23:59:00,39.5,34.8,29.96,West,268,2.0,2.0,83,0.00,,,0.33,0,Wunderground v.1.15,2013-12-17 04:59:00,